Regional Weather Roundup
Issued by NWS

Home | Current Version | Previous Version | Graphics & Text | Print | Product List | Glossary On
Versions: 1 2 3 4 5 6 7 8 9 10 11 12 13 14 15 16 17 18 19 20 21 22 23 24 25 26 27 28 29 30 31 32 33 34 35 36 37 38 39 40 41 42 43 44 45 46 47 48 49 50
000
ASUS43 KMPX 250810
RWRMN
WEATHER ROUNDUP FOR MINNESOTA
NATIONAL WEATHER SERVICE TWIN CITIES/CHANHASSEN MN
300 AM CDT THU AUG 25 2016


NOTE: "FAIR" INDICATES FEW OR NO CLOUDS BELOW 12,000 FEET WITH NO
SIGNIFICANT WEATHER AND/OR OBSTRUCTIONS TO VISIBILITY. N/A MEANS
CURRENT SKY AND/OR WEATHER CONDITIONS ARE NOT AVAILABLE.

MNZ060>063-068>070-250900-
   Twin Cities Metro

CITY           SKY/WX    TMP DP  RH WIND       PRES   REMARKS
TWIN CITIES    CLEAR     64  59  83 CALM      30.01S
ST PAUL        CLEAR     63  59  87 CALM      30.01S
CRYSTAL        CLEAR     62  56  80 W3        30.00R
BLAINE         CLEAR     63  61  94 CALM      30.01S
LAKEVILLE      CLOUDY    59  59 100 CALM      30.02S
EDEN PRAIRIE   CLEAR     63  59  87 SW3       30.01R
LAKEVILLE      CLOUDY    59  59 100 CALM      30.02S
SOUTH ST PAUL  CLOUDY    63  60  89 CALM      30.01S
LAKE ELMO      FAIR      59  57  94 CALM      30.02S
$$
MNZ001>005-007-008-013>017-022>024-027-028-250900-
   Northwest Minnesota

CITY           SKY/WX    TMP DP  RH WIND       PRES   REMARKS
BEMIDJI        CLEAR     56  51  84 SW8       29.93S
HALLOCK        CLEAR     55  54  94 SW8       29.85F
ROSEAU         CLEAR     57  52  82 SW8       29.85S
WARROAD        CLEAR     55  52  88 SW5       29.85F
THIEF RVR FALL CLEAR     57  51  80 SW13      29.90S
CROOKSTON      CLEAR     55  52  88 W10       29.91S
FOSSTON        CLEAR     50  48  93 S8        29.93S
DETROIT LAKES  CLEAR     59  50  72 W7        29.98S
MOORHEAD       CLEAR     57  52  82 W10       29.97S
PARK RAPIDS    CLEAR     53  50  89 SW5       29.96S
MAHNOMEN       FAIR      55  50  85 SW9       29.95R
$$
MNZ006-009>011-018-025>026-250900-
   North Central Minnesota

CITY           SKY/WX    TMP DP  RH WIND       PRES   REMARKS
BAUDETTE       CLEAR     52  50  93 SW5       29.85F
FLAG ISLAND    CLEAR     59  54  82 SW5       29.81F HAZE
INTL FALLS     CLEAR     51  49  92 SW3       29.87S
WASKISH        CLEAR     64  55  72 W14       29.88F
BIG FORK       CLEAR     52  50  93 CALM      29.92S
LONGVILLE      CLEAR     59  55  88 SW7       29.95S
GRAND RAPIDS   CLEAR     55  52  89 S3        29.96S
CRANE LAKE     CLEAR     55  54  94 S5        29.90S
ORR            CLEAR     55  50  82 CALM      29.89R
COOK           CLEAR     55  54  94 SW3       29.92R
WALKER         FAIR      56  51  80 SW5       29.95S
$$
MNZ012-019>021-037-250900-
   Northeast Minnesota

CITY           SKY/WX    TMP DP  RH WIND       PRES   REMARKS
DULUTH         CLEAR     58  55  90 W10       29.95S
ELY            CLEAR     57  52  82 W7        29.91R
HIBBING        CLEAR     51  50  96 CALM      29.94R
EVELETH        CLEAR     53  52  95 CALM      29.95R
DULUTH HARBOR  CLEAR     61  57  88 SW9       29.94S
TWO HARBORS    CLEAR     61  55  82 W7        29.92S
SILVER BAY     CLEAR     55  54  94 CALM      29.91R
GRAND MARAIS     N/A     65  50  58 VRB6      29.84S
G MARAIS ARPRT CLEAR     57  50  77 W3        29.91S
$$
MNZ029>031-032-039>041-046>048-054>057-064-250900-
   West Central Minnesota

CITY           SKY/WX    TMP DP  RH WIND       PRES   REMARKS
FERGUS FALLS   CLEAR     54  52  94 W7        30.02R
WHEATON        CLEAR     61  55  82 W5        30.04R
MORRIS         CLEAR     55  54  94 W5        30.01S
ALEXANDRIA     CLEAR     57  54  89 SW7       30.02S
ELBOW LAKE     FAIR      54  52  94 SW6       30.02R
WADENA         CLEAR     54  52  94 SW5       29.98S
GLENWOOD       CLEAR     55  54  94 SW7       30.02S
APPLETON       CLEAR     55  54  94 SW5       30.02S
BENSON         CLEAR     55  52  88 CALM      30.02S
ORTONVILLE     CLEAR     57  54  88 W6        30.04R
MADISON        CLEAR     55  54  94 W6        30.03S
WILLMAR        FAIR      57  55  94 SW3       30.04S
$$
MNZ033>034-036-042>043-049>051-058-059-250900-
   Central Minnesota

CITY           SKY/WX    TMP DP  RH WIND       PRES   REMARKS
ST CLOUD       CLEAR     57  56  96 CALM      30.01R
SAUK CENTRE    FAIR      56  55  94 SW5       30.01F
PAYNESVILLE    CLEAR     55  55 100 W3        30.03S
AITKIN           N/A     61  52  72 SW3       29.97S
PINE RIVER     CLEAR     52  52 100 CALM      30.01S
BRAINERD       CLEAR     57  54  89 SW6       29.99S
STAPLES        CLEAR     55  52  88 SW5       29.98F
LONG PRAIRIE   FAIR      54  54 100 S3        30.01F
LITTLE FALLS   CLEAR     55  54  94 CALM      30.01S
LITCHFIELD     CLEAR     63  57  82 CALM      30.03S
BUFFALO        CLEAR     62  58  86 SW3       30.03R
MAPLE LAKE     CLEAR     61  59  92 CALM      30.03R
HUTCHINSON     CLEAR     58  57  97 W5        30.04R
$$
MNZ037-044-045-052-053-250900-
   East Central Minnesota

CITY           SKY/WX    TMP DP  RH WIND       PRES   REMARKS
PRINCETON      CLEAR     61  57  88 CALM      30.01S
MORA           CLEAR     55  54  94 W3        30.01S
CAMBRIDGE      CLEAR     61  54  77 CALM      29.99S
RUSH CITY      PTCLDY    60  56  88 CALM      30.00S
MOOSE LAKE     CLEAR     52  52 100 CALM      29.96S FOG
HINCKLEY       FAIR      57  55  94 W3        29.98F
CLOQUET        CLEAR     59  54  82 SW8       29.96F
MCGREGOR       CLEAR     57  54  88 SW5       29.98S
$$
MNZ071>073-080-081-089-090-097-098-250900-
   Southwest Minnesota

CITY           SKY/WX    TMP DP  RH WIND       PRES   REMARKS
MONTEVIDEO     CLEAR     57  54  88 W5        30.04S
GRANITE FALLS  CLEAR     58  56  93 SW6       30.05S
CANBY          CLEAR     60  55  84 W5        30.05S
MARSHALL       CLEAR     61  55  81 SW7       30.05S
REDWOOD FALLS  CLEAR     60  56  86 SW7       30.04R
OLIVIA         CLEAR     55  54  94 SW5       30.03R
PIPESTONE      CLEAR     55  54  94 SW3       30.08S
WINDOM         PTCLDY    59  55  88 W5        30.07S
WORTHINGTON    PTCLDY    59  57  93 W6        30.09S
JACKSON        PTCLDY    59  54  82 W3        30.08S
TRACY          CLEAR     61  56  84 SW7       30.06R
SLAYTON        PTCLDY    57  54  88 SW8       30.09R
$$
MNZ065>067-074>077-082>085-091>093-250900-
   South Central Minnesota

CITY           SKY/WX    TMP DP  RH WIND       PRES   REMARKS
MANKATO        PTCLDY    61  57  88 SW5       30.04S
NEW ULM          N/A     57  57 100 W6        30.04S
ST JAMES       MOCLDY    55  54  94 SW3       30.06S
FAIRMONT       CLOUDY    60  57  89 W6        30.07R
GLENCOE        CLEAR     61  60  97 CALM      30.03R
FARIBAULT      CLOUDY    61  59  94 CALM      30.04S
OWATONNA       CLOUDY    61  57  88 CALM      30.04S
WASECA         CLEAR     59  57  94 CALM      30.06R
ALBERT LEA     CLEAR     63  61  94 NW5       30.06R
$$
MNZ078>079-086>088-094>096-250900-
   Southeast Minnesota

CITY           SKY/WX    TMP DP  RH WIND       PRES   REMARKS
ROCHESTER      CLOUDY    62  60  93 W7        30.05R
RED WING       CLOUDY    63  61  94 CALM      30.00S
STANTON        PTCLDY    61  59  94 CALM      30.01S
DODGE CENTER   CLOUDY    63  57  82 NW6       30.04S
WINONA         CLOUDY    64  59  82 CALM      30.01S
AUSTIN         CLOUDY    63  59  88 NW3       30.05R
PRESTON        PTCLDY    62  58  88 NW8       30.04S
$$
ABBREVIATIONS USED IN REMARKS
   TC - TEMPERATURES IN CELSIUS
  WCI - WIND CHILL INDEX
   HX - HEAT INDEX
  VSB - VISIBILITY
$$




USA.gov is the U.S. government's official web portal to all federal, state and local government web resources and services.